Location: Clyde
(45.1830°S, 169.3170°E)
Time: 10:27:16
(UTC+12:00)

Cosmos 2237 Rocket - Pass Details

Date: 14 May 2021
Orbit: 836 x 848 km, 71.0° (Epoch: 15 June)

Event Time Altitude Azimuth Distance (km) Brightness Sun altitude
Rises 20:35:28 0° 296° (WNW) 3,406 6.1 -33.5°
Reaches altitude 10° 20:38:22 10° 283° (WNW) 2,481 5.4 -34.0°
Maximum altitude 20:42:59 25° 229° (SW) 1,678 4.1 -34.8°
Enters shadow 20:45:03 20° 198° (SSW) 1,875 4.2 -35.2°
